Weather in Leninavan

Russia / Rostov Oblast     47°16′56″N   39°37′15″E
temp.,
°C
wind,
m/s
gust,
m/s
humid.,
%
clouds,
%
prec.,
mm/h
press.,
hPa
HPBL,
m
27 february, sat
sat2700:00+4wsw7159799 0.0 1018415
03:00+4wsw8169497 0.0 1017460
06:00+3wsw7139695 0.0 1015347
09:00+3wsw7129798 0.0 1015315
12:00+3wsw61297100 0.6 1014346
15:00+3wsw5998100 3.5 1014285
18:00+3w3597100 0.4 1013158
21:00+3w2594100 0.4 101599
28 february, sun
sun2800:00+3nw3592100 0.1 1015125
03:00+1nnw3789100 0.1 1016152
06:000nnw339388 0.0 101687
09:00+2nnw368683 0.0 1017342
12:00+4nw337288 0.1 1018771
15:00+4wnw347593 0.4 1018703
18:00+3w347998 0.2 1018183
21:00+2wnw239399 0.3 1020113
1 march, mon
mon100:00+1wsw129598 0.0 102053
03:00+1wsw129493 0.0 102124
06:000wnw129294 0.0 102232
09:00+1nw228893 0.0 1024254
12:00+3w227993 0.1 1025549
15:00+4wnw226996 0.4 1025774
18:00+3w237899 0.1 1026156
21:00+2wsw228398 0.2 102860
2 march, tue
tue200:00+1w228387 0.0 102833
03:00+1wnw228264 0.0 102825
06:000wsw238043 0.0 102785
09:00+1w477372 0.0 1027453
12:00+3wsw71065100 0.0 10251005
15:00+2wsw91370100 0.0 1022883
18:00+1wsw91478100 0.0 1020632
21:00+2wsw81390100 0.1 1020573
3 march, wed
wed300:00+2wnw5118796 0.3 1020536
03:00+2wnw5108394 0.4 1020461
06:00+1wnw4978100 0.1 1020441
09:00+2nw6107483 0.1 1022799
12:00+4wnw696591 0.0 10221223
15:00+5nw685996 0.0 10221296
18:00+4wnw486545 0.0 1023320
21:00+2wnw337222 0.0 102565